Regional Weather Roundup
Issued by NWS Northern Indiana

Home | Current Version | Previous Version | Text Only | Print | Product List | Glossary On
Versions: 1 2 3 4 5 6 7 8 9 10 11 12 13 14 15 16 17 18 19 20 21 22 23 24 25 26 27 28 29 30 31 32 33 34 35 36 37 38 39 40 41 42 43 44 45 46 47 48 49 50
000
ASUS43 KIWX 271401
RWRIWX

KIWX WEATHER ROUNDUP
NATIONAL WEATHER SERVICE NORTHERN INDIANA
1000 AM EDT MON MAY 27 2019

NOTE: "FAIR" INDICATES FEW OR NO CLOUDS BELOW 12,000 FEET WITH NO
SIGNIFICANT WEATHER AND/OR OBSTRUCTIONS TO VISIBILITY.

* THESE STATIONS ARE NOT UNDER NWS QUALITY CONTROL. THEY ALSO MAY NOT
  REPORT WEATHER SUCH AS PRECIPITATION OR FOG.

INZ001>027-271500-
NORTHERN INDIANA

CITY           SKY/WX    TMP DP  RH WIND       PRES   REMARKS
GARY*          MOSUNNY   68  54  60 SE6       30.05S
MICHIGAN CITY* FAIR      68  55  64 S5        30.05S
SOUTH BEND     CLOUDY    61  60  97 SE9       30.07S
GOSHEN         CLOUDY    64  60  87 SE9       30.07F FOG
MONTICELLO*    FAIR      67  61  79 CALM      30.05S
WARSAW*        CLOUDY    61  61 100 E7        30.07S FOG
AUBURN*        FAIR      64  59  82 E8        30.10S
FORT WAYNE     CLOUDY    63  59  87 SE8       30.09S
HUNTINGTON*    CLOUDY    61  60  96 SE5       30.09S
PERU/GRISSOM   CLOUDY    64  64 100 E9        30.07R

$$
INZ028>050-271500-
CENTRAL INDIANA

CITY           SKY/WX    TMP DP  RH WIND       PRES   REMARKS
LAFAYETTE      PTSUNNY   70  63  78 SE6       30.04F
KOKOMO*        CLOUDY    64  64 100 SE7       30.09R
MUNCIE*        CLOUDY    66  62  87 E9        30.07F
INDIANAPOLIS   FAIR      72  63  73 SE6       30.05S

$$
MIZ043>046-050>051-056>058-064>065-071>073-077>080-271500-
SOUTHWEST LOWER MICHIGAN

CITY           SKY/WX    TMP DP  RH WIND       PRES   REMARKS
BATTLE CREEK   FAIR      66  53  63 SE12      30.08F
BENTON HARBOR  PTSUNNY   63  59  87 SE7       30.06S
COLDWATER*     FAIR      64  55  72 SE10      30.09F
HILLSDALE*     FAIR      63  52  67 SE8       30.10S
HOLLAND        FAIR      65  57  75 SE8       30.06F
GRAND RAPIDS   FAIR      63  57  81 E8        30.09S
KALAMAZOO      FAIR      66  56  70 SE6       30.09S
STURGIS*       FAIR      64  59  82 SE9       30.08F
THREE RIVERS*  CLOUDY    64  60  86 S6        30.09S FOG

$$
OHZ001>008-015>018-024>025-271500-
NORTHWEST OHIO

CITY           SKY/WX    TMP DP  RH WIND       PRES   REMARKS
DEFIANCE       FAIR      65  50  58 VRB7      30.10F
FINDLAY        FAIR      66  49  54 NE6       30.09F
OTTAWA*        FAIR      63  50  63 E7        30.10F
TOLEDO EXPRESS FAIR      64  51  62 E6        30.10F
LIMA           FAIR      67  54  63 E7        30.09S

$$
AND FOR LAKE MICHIGAN COASTAL AND OPEN LAKE BUOY OBSERVATIONS

STATION/POSITION TEMP    WIND        PRES    VSBY  WAVE
                 AIR SEA DIR/SP/G                  HT/PER
                 (F)     (DEG/KT/KT) (MB)    (MI)  (FT/S)
CALUMET HARBOR    55      50/  3/  4 1017.2
MICHIGAN CITY     58      30/  5/  5   N/A
BURNS HARBOR      62     190/  4/  6 1017.9R
SAINT JOSEPH      64      CALM  /  3 1018.6
SOUTH LAKE BUOY   43 40   CALM  /  2 1018.5F
4 MI NW BRIDGMAN  59 57   30/  2/  2 1017.8F         1
MICHIGAN CITY     56 55   50/  4/  6   N/A           1/ 3

$$
&&




USA.gov is the U.S. government's official web portal to all federal, state and local government web resources and services.